| time (UTC) | temp F | wind direction | speed MPH | gust MPH | rain 1hr in | rain 24hr in | rain mn in | humidity % | barometer mb |
| 20260504004524 | 74 | 148 | 0.0 | 1.0 | 0.00 | 0.00 | 0.00 | 52 | 1017.3 |
| 20260504003003 | 75 | 88 | 0.0 | 2.0 | 0.00 | 0.00 | 0.00 | 47 | 1017.5 |
| 20260504001509 | 76 | 162 | 0.0 | 3.0 | 0.00 | 0.00 | 0.00 | 42 | 1017.6 |
| 20260504000011 | 77 | 186 | 0.0 | 4.0 | 0.00 | 0.00 | 0.00 | 41 | 1017.7 |
| 20260503234516 | 79 | 279 | 1.0 | 6.0 | 0.00 | 0.00 | 0.00 | 38 | 1017.7 |
| 20260503233019 | 80 | 247 | 0.0 | 7.0 | 0.00 | 0.00 | 0.00 | 38 | 1017.6 |
| 20260503231505 | 80 | 159 | 2.0 | 10.0 | 0.00 | 0.00 | 0.00 | 36 | 1017.7 |
| 20260503230011 | 81 | 271 | 2.0 | 8.0 | 0.00 | 0.00 | 0.00 | 35 | 1017.8 |
| 20260503224515 | 80 | 173 | 2.0 | 8.0 | 0.00 | 0.00 | 0.00 | 35 | 1017.8 |
| 20260503223020 | 81 | 290 | 1.0 | 7.0 | 0.00 | 0.00 | 0.00 | 35 | 1018.0 |
| 20260503221530 | 81 | 145 | 2.0 | 9.0 | 0.00 | 0.00 | 0.00 | 35 | 1018.0 |
| 20260503220008 | 81 | 216 | 0.0 | 6.0 | 0.00 | 0.00 | 0.00 | 35 | 1018.1 |
| 20260503214513 | 81 | 277 | 1.0 | 9.0 | 0.00 | 0.00 | 0.00 | 35 | 1018.3 |
| 20260503213028 | 81 | 40 | 0.0 | 8.0 | 0.00 | 0.00 | 0.00 | 38 | 1018.5 |
| 20260503211522 | 81 | 301 | 2.0 | 7.0 | 0.00 | 0.00 | 0.00 | 35 | 1018.8 |
| 20260503210024 | 80 | 305 | 2.0 | 10.0 | 0.00 | 0.00 | 0.00 | 37 | 1019.0 |
| 20260503204508 | 80 | 278 | 1.0 | 7.0 | 0.00 | 0.00 | 0.00 | 36 | 1019.3 |
| 20260503203016 | 80 | 238 | 6.0 | 11.0 | 0.00 | 0.00 | 0.00 | 36 | 1019.6 |
| 20260503201527 | 80 | 209 | 1.0 | 12.0 | 0.00 | 0.00 | 0.00 | 37 | 1020.0 |
| 20260503200030 | 80 | 246 | 6.0 | 11.0 | 0.00 | 0.00 | 0.00 | 36 | 1020.2 |
| 20260503194529 | 79 | 272 | 4.0 | 9.0 | 0.00 | 0.00 | 0.00 | 38 | 1020.5 |
| 20260503193013 | 79 | 309 | 3.0 | 12.0 | 0.00 | 0.00 | 0.00 | 38 | 1020.7 |
| 20260503191520 | 79 | 288 | 2.0 | 10.0 | 0.00 | 0.00 | 0.00 | 40 | 1021.0 |
| 20260503190023 | 79 | 17 | 4.0 | 10.0 | 0.00 | 0.00 | 0.00 | 41 | 1021.3 |
| 20260503184527 | 78 | 215 | 3.0 | 11.0 | 0.00 | 0.00 | 0.00 | 42 | 1021.4 |
| 20260503183035 | 78 | 256 | 4.0 | 13.0 | 0.00 | 0.00 | 0.00 | 41 | 1021.7 |
| 20260503181547 | 77 | 17 | 1.0 | 14.0 | 0.00 | 0.00 | 0.00 | 40 | 1022.0 |
| 20260503180020 | 77 | 267 | 1.0 | 9.0 | 0.00 | 0.00 | 0.00 | 43 | 1022.2 |
| 20260503174523 | 76 | 251 | 2.0 | 11.0 | 0.00 | 0.00 | 0.00 | 43 | 1022.4 |
| 20260503173042 | 76 | 286 | 4.0 | 11.0 | 0.00 | 0.00 | 0.00 | 44 | 1022.7 |
| 20260503171528 | 75 | 230 | 2.0 | 10.0 | 0.00 | 0.00 | 0.00 | 46 | 1022.7 |
| 20260503081520 | 48 | 228 | 0.0 | 0.0 | 0.00 | 0.01 | 0.00 | 94 | 1021.0 |
| 20260503071505 | 49 | 228 | 0.0 | 0.0 | 0.00 | 0.01 | 0.00 | 94 | 1021.1 |
| 20260503054513 | 51 | 228 | 0.0 | 0.0 | 0.00 | 0.01 | 0.00 | 93 | 1021.3 |
| 20260503053027 | 51 | 228 | 0.0 | 0.0 | 0.00 | 0.01 | 0.00 | 93 | 1021.0 |
| 20260503051506 | 51 | 228 | 0.0 | 0.0 | 0.00 | 0.01 | 0.00 | 92 | 1021.1 |
| 20260503050006 | 52 | 228 | 0.0 | 0.0 | 0.00 | 0.01 | 0.00 | 92 | 1021.1 |
| 20260503044506 | 52 | 228 | 0.0 | 0.0 | 0.00 | 0.01 | 0.01 | 92 | 1021.1 |
| 20260503043012 | 53 | 228 | 0.0 | 0.0 | 0.00 | 0.01 | 0.01 | 91 | 1021.1 |
| 20260503041516 | 53 | 228 | 0.0 | 0.0 | 0.00 | 0.01 | 0.01 | 91 | 1021.1 |
| 20260503040006 | 53 | 228 | 0.0 | 0.0 | 0.00 | 0.01 | 0.01 | 90 | 1021.2 |
| 20260503034504 | 54 | 228 | 0.0 | 0.0 | 0.00 | 0.01 | 0.01 | 89 | 1021.2 |
| 20260503033013 | 54 | 228 | 0.0 | 0.0 | 0.00 | 0.01 | 0.01 | 88 | 1021.1 |
| 20260503031514 | 55 | 228 | 0.0 | 0.0 | 0.00 | 0.01 | 0.01 | 86 | 1021.1 |
| 20260503030019 | 55 | 228 | 0.0 | 0.0 | 0.00 | 0.01 | 0.01 | 84 | 1021.1 |
| 20260503024504 | 56 | 228 | 0.0 | 0.0 | 0.00 | 0.01 | 0.01 | 81 | 1020.9 |
| 20260503023008 | 57 | 228 | 0.0 | 0.0 | 0.00 | 0.01 | 0.01 | 79 | 1020.8 |
| 20260503021517 | 59 | 228 | 0.0 | 0.0 | 0.00 | 0.01 | 0.01 | 76 | 1020.6 |
| 20260503020026 | 60 | 228 | 0.0 | 0.0 | 0.00 | 0.01 | 0.01 | 72 | 1020.5 |
| 20260503014518 | 62 | 228 | 0.0 | 0.0 | 0.00 | 0.01 | 0.01 | 67 | 1020.4 |
| 20260503013006 | 63 | 228 | 0.0 | 0.0 | 0.00 | 0.01 | 0.01 | 62 | 1020.2 |
| 20260503011510 | 65 | 228 | 0.0 | 0.0 | 0.00 | 0.01 | 0.01 | 60 | 1020.0 |
| 20260503010015 | 67 | 228 | 0.0 | 0.0 | 0.00 | 0.01 | 0.01 | 55 | 1019.8 |